[Iaude] MPEC J03: 2024 HK2 [a=1.27,e=0.58,i=2.9,H=25.7]

mpec at cfa.harvard.edu mpec at cfa.harvard.edu
Tue Apr 30 23:27:05 EDT 2024


M.P.E.C. 2024-J03                                   Issued 2024 May 1, 03:25 UT

     The Minor Planet Electronic Circulars contain information on unusual
         minor planets, routine data on comets and natural satellites,
         and occasional editorial announcements.  They are published
    on behalf of Division F of the International Astronomical Union by the
          Minor Planet Center, Smithsonian Astrophysical Observatory,
                          Cambridge, MA 02138, U.S.A.
			  
             Prepared using the Tamkin Foundation Computer Network

                              MPC at CFA.HARVARD.EDU
            URL https://www.minorplanetcenter.net/    ISSN 1523-6714

                                    2024 HK2                                    


Observations:
     K24H02K*1C2024 04 29.19961012 31 32.680-24 41 01.70         19.45GVEJ003G96
     K24H02K 1C2024 04 29.20542812 31 16.760-24 40 49.60               VEJ003G96
     K24H02K 1C2024 04 29.21124012 31 01.090-24 40 40.10               VEJ003G96
     K24H02K 1C2024 04 29.21705912 30 45.350-24 40 26.40         20.05GVEJ003G96
     K24H02K KC2024 04 29.26206712 28 41.588-24 38 46.54         19.29GVEJ003I52
     K24H02K KC2024 04 29.26265112 28 39.976-24 38 45.71         19.86GVEJ003I52
     K24H02K KC2024 04 29.26323812 28 38.348-24 38 44.41         19.55GVEJ003I52
     K24H02K KC2024 04 29.26382612 28 36.700-24 38 42.86         19.72GVEJ003I52
     K24H02K 0B2024 04 29.82712 11 59 37.634-23 59 35.48         19.5 VZEJ003M49
     K24H02K 0B2024 04 29.83029 11 59 25.858-23 59 17.92         19.4 VZEJ003M49
     K24H02K 0B2024 04 29.83346 11 59 14.134-23 58 59.59         19.6 VZEJ003M49
     K24H02K KC2024 04 30.14428 11 39 06.46 -23 26 29.9          19.1 RqEJ003734
     K24H02K mC2024 04 30.14715011 38 59.276-23 25 43.46         19.18GVEJ003I52
     K24H02K mC2024 04 30.14732211 38 58.531-23 25 41.45         18.82GVEJ003I52
     K24H02K mC2024 04 30.14749411 38 57.822-23 25 39.22               VEJ003I52
     K24H02K mC2024 04 30.14766411 38 57.080-23 25 38.89         19.81GVEJ003I52
     K24H02K KB2024 04 30.14912 11 38 50.29 -23 25 24.2          19.3 VZEJ003V24
     K24H02K KC2024 04 30.15015 11 38 41.20 -23 25 37.5          19.0 RqEJ003734
     K24H02K KB2024 04 30.15178 11 38 38.81 -23 25 01.2          19.1 VZEJ003V24
     K24H02K KB2024 04 30.15444 11 38 27.30 -23 24 38.5          20.0 VZEJ003V24
     K24H02K KB2024 04 30.98120610 27 14.160-19 46 42.67         18.9 VZEJ003Y05
     K24H02K KB2024 04 30.98605010 26 43.642-19 44 46.61         18.4 VZEJ003Y05

Observer details:
734 Farpoint Observatory, Eskridge.  Observers G. Hug, D. Cromer, D. Goodin,
    R. Valentine, P. Lessig.  Measurer D. Goodin.  0.7m reflector + CCD.
G96 Mt. Lemmon Survey.  Observer J. B. Fazekas.  Measurers T. Beuden, V. F.
    Carvajal, D. Fay, J. B. Fazekas, D. C. Fuls, A. R. Gibbs, A. D. Grauer, H.
    Groeller, J. K. Hogan, R. A. Kowalski, S. M. Larson, G. J. Leonard, D.
    Rankin, R. L. Seaman, F. C. Shelly, K. W. Wierzchos.  1.5-m reflector +
    10K CCD.
I52 Steward Observatory, Mt. Lemmon Station.  Observers R. A. Kowalski, V. F.
    Carvajal, G. J. Leonard.  Measurers T. Beuden, V. F. Carvajal, D. Fay, J.
    B. Fazekas, D. C. Fuls, A. R. Gibbs, A. D. Grauer, H. Groeller, J. K.
    Hogan, R. A. Kowalski, S. M. Larson, G. J. Leonard, D. Rankin, R. L.
    Seaman, F. C. Shelly, K. W. Wierzchos.  1.0-m prime focus + CCD.
M49 IAS Remote Observatory, Hakos.  Observers D. Husar, M. Junius.  Measurer
    D. Husar.  0.25-m f/4.5 reflector + CMO.
V24 Sonoran Desert Skies Observatory, Pearce.  Observer A. Helms.  0.32-m
    f/6.7 reflector + CMO.
Y05 SONEAR Wykrota-CEAMIG, Serra da Piedade.  Observers C. Jacques, A.
    Caetano, E. Pimentel.  Measurer C. Jacques.  0.45-m f/2.9 reflector + CMO.

Orbital elements:
2024 HK2                                                 Earth MOID = 0.0090 AU
Epoch 2024 Mar. 31.0 TT = JDT 2460400.5                 Veres                   
M 299.67530              (2000.0)            P               Q                  
n   0.69109650     Peri.   96.97691     +0.84548001     +0.53252648             
a   1.2670009      Node   230.85514     -0.50794522     +0.77902377             
e   0.5834612      Incl.    2.93701     -0.16478835     +0.33096451             
P   1.43           H   25.70          G   0.15           U   8                  
Residuals in seconds of arc
240429 G96  1.9+  1.1-    240429 M49  0.3-  0.1+    240430 V24  0.6-  0.1-
240429 G96  1.1-  0.2-    240429 M49  0.8-  0.0     240430 734  0.0   0.6+
240429 G96  0.3-  2.1-    240429 M49  0.4-  0.4+    240430 V24  0.2+  0.2-
240429 G96  0.5+  0.1-    240430 734 (1.6-  0.2-)   240430 V24  0.8+  0.7-
240429 I52  0.1-  0.6+    240430 I52  0.0   1.0-    240430 Y05  0.1+  0.3-
240429 I52  0.0   0.0     240430 I52  0.0   0.5-    240430 Y05  0.4-  0.3-
240429 I52  0.1+  0.1-    240430 I52  0.5+  0.3+
240429 I52  0.1-  0.0     240430 I52  0.4+  0.9-

Ephemeris:
2024 HK2                 a,e,i = 1.27, 0.58, 3                   q = 0.5278
Date    TT    R. A. (2000) Decl.     Delta      r    Elong.  Phase     V
2024 04 01    14 40 16.2 -21 33 06   0.3501  1.3059   146.7    24.9    25.2
...
2024 04 16    14 31 45.9 -22 52 43   0.1732  1.1693   161.7    15.6    23.1
...
2024 04 24    14 04 18.8 -23 59 28   0.08654 1.0907   168.8    10.3    21.2
...
2024 04 30    11 48 53.1 -23 41 05   0.02811 1.0293   141.2    37.9    19.5
2024 05 01    10 25 29.4 -19 39 34   0.02175 1.0189   121.0    58.0    19.5
2024 05 02    08 31 45.6 -09 51 42   0.01952 1.0084    91.3    87.6    20.3
...
2024 05 08    04 08 39.6 +17 44 16   0.06758 0.9446    16.3   162.6    31.7
...
2024 05 16    03 29 44.5 +20 17 15   0.1535  0.8576     1.3   178.5
...
2024 05 31    03 17 39.1 +21 03 52   0.3412  0.6957    17.4   154.2    31.9

M. P. C. Staff               (C) Copyright 2024 MPC           M.P.E.C. 2024-J03





More information about the Iaude mailing list